Regional Weather Roundup
Issued by NWS Wakefield, VA

Home | Current Version | Previous Version | Graphics & Text | Print | Product List | Glossary On
Versions: 1 2 3 4 5 6 7 8 9 10 11 12 13 14 15 16 17 18 19 20 21 22 23 24 25 26 27
000
ASUS41 KAKQ 280915
RWRAKQ

REGIONAL WEATHER ROUNDUP
NATIONAL WEATHER SERVICE WAKEFIELD VA
500 AM EDT TUE MAR 28 2017

Note: "fair" indicates few or no clouds below 12,000 feet with no
significant weather and/or obstructions to visibility. * = Denotes
station may not report precipitation (e.g., rain,snow,etc.),
thunder or fog.

VAZ042-051-052>054-056-281000-
NORTHERN VIRGINIA

CITY           SKY/WX    TMP DP  RH WIND       PRES   REMARKS
WASH NATIONAL  LGT RAIN  61  57  87 S3        29.85S
DULLES         LGT RAIN  58  56  93 CALM      29.85S
FORT BELVOIR   CLOUDY    58  55  87 CALM      29.85S
QUANTICO       CLOUDY    57  54  89 S13       29.85F
FREDERICKSBRG* CLOUDY    64  60  88 S8        29.85F
STAFFORD*      MOCLDY    63  60  91 S5        29.89S
WARRENTON      NOT AVBL
CULPEPER*      CLOUDY    64  59  85 CALM      29.85F
MANASSAS*        N/A    N/A N/A N/A CALM      29.85F
LEESBURG*      CLOUDY    59  57  94 NE3       29.86F
WINCHESTER     MOCLDY    52  52 100 N3        29.84F FOG
FRONT ROYAL*   CLOUDY    55  55 100 CALM      29.83F
LURAY*         MOSUNNY   54  54 100 CALM      29.83F FOG
$$

VAZ048-049-060>072-079>083-281000-
CENTRAL AND SOUTH CENTRAL VIRGINIA

CITY           SKY/WX    TMP DP  RH WIND       PRES   REMARKS
RICHMOND       CLOUDY    62  56  80 S12       29.88F
CHESTERFIELD*  PTSUNNY  N/A N/A N/A S6        29.89F
PETERSBURG*    CLEAR     58  54  86 CALM      29.90S
HANOVER        PTCLDY    65  54  67 S8        29.89F
TAPPAHANNOCK*  PTCLDY    65  49  56 S6        29.88F
QUINTON*       FAIR      63  56  80 MISG      29.88F
CHARLOTTSVILLE MOCLDY    62  58  86 S8        29.85F
GORDONSVILLE*  PTSUNNY   57  56  97 CALM      29.84F
ORANGE*        PTCLDY    61  55  82 CALM      29.86F
LOUISA*        CLOUDY    64  61  88 S5        29.85F
BUMPASS*       FAIR      63  58  82 S5        29.86F
FARMVILLE*     PTCLDY    63  58  84 S5        29.86F
CREWE*         FAIR      62  61  96 S6        29.89S
FORT PICKETT*  FAIR      61  54  76 SW14      29.89F
CHASE CITY*    CLOUDY    63  57  81 SW7       29.90S
CLARKSVILLE*   PTSUNNY   63  55  77 SW7       29.91S
SOUTH HILL*    PTCLDY    60  55  85 S6        29.96F
LAWRENCEVILLE* FAIR      60  54  80 MISG      29.90F
EMPORIA*       PTCLDY    59  54  82 SE3       29.93S
$$

VAZ088>098-281000-
SOUTHEAST VIRGINIA

CITY           SKY/WX    TMP DP  RH WIND       PRES   REMARKS
NORFOLK        PTCLDY    62  54  74 S14       29.92F
VIRGINIA BEACH PTCLDY    59  52  77 S8        29.93S
NORFOLK NAVAL  MOCLDY    62  53  72 S9        29.93F
WEST POINT*    CLEAR     59  53  81 CALM      29.91S
SALUDA*        FAIR      62  56  79 S6        29.89F
NEWPORT NEWS   PTCLDY    60  54  80 S8        29.91F
LANGLEY AFB    PTCLDY    61  55  79 S9        29.91F
FORT EUSTIS    CLOUDY    60  53  79 S6        29.89F
WILLIAMSBURG*  CLOUDY    63  55  77 CALM      29.92S
HR EXEC AP*    FAIR      59  52  77 SW9       29.91S
FRANKLIN*      CLOUDY    58  53  84 S6        29.93S
US460-WAKEFLD  CLOUDY    60  55  83 S5        29.91F
$$

VAZ020-022-025-037-045-281000-
WEST CENTRAL AND SOUTHWEST VIRGINIA

CITY           SKY/WX    TMP DP  RH WIND       PRES   REMARKS
STAUNTON*      MOCLDY    50  49  97 CALM      29.87S
WAYNESBORO*    PTSUNNY   60  58  95 SW5       29.86S
HOT SPRINGS VA CLOUDY    50  50 100 W8        29.92S
LYNCHBURG      LGT RAIN  60  58  92 SW5       29.89S
DANVILLE       TSTM      60  60 100 SW6       29.89F
SOUTH BOSTON*  CLOUDY    61  60  95 S6        29.90F
MARTINSVILLE   LGT RAIN  58  57  97 CALM      29.92F
ROANOKE        RAIN      60  56  86 SW9       29.92R FOG
BLACKSBURG     DRIZZLE   56  54  93 SE3       29.93F
DUBLIN*        CLOUDY    57  54  92 CALM      29.91F
MARION*        CLOUDY    55  54  96 CALM      29.93S
HILLSVILLE*    DRIZZLE   54  54 100 S5        29.89F
RICHLANDS*     PTSUNNY   55  51  87 SW7       29.89S
WISE*          CLOUDY    54  52  94 SW10      29.89S
ABINGDON*      CLOUDY    56  56 100 NW3       29.89F
$$

MDZ021>025-VAZ099-100-281000-
SOUTHERN MARYLAND AND THE DELMARVA PENINSULA

CITY           SKY/WX    TMP DP  RH WIND       PRES   REMARKS
PATUXENT RIVER CLOUDY    56  53  90 SE7       29.86F
BAY BRIDGE APT CLOUDY    59  54  82 S7        29.85F
LEONARDTOWN    CLOUDY    63  54  72 SW7       29.88S
DOVER          CLOUDY    61  60  97 S8        29.86S
GEORGETOWN     CLOUDY    60  53  77 S7        29.89S
EASTON         CLOUDY    63  55  74 S5        29.90S
CAMBRIDGE      CLOUDY    57  54  88 S8        29.87F
SALISBURY      MOCLDY    59  54  83 S8        29.89S
OCEAN CITY     PTCLDY    51  48  89 SW7       29.91S
WALLOPS ISLAND CLEAR     52  51  97 S10       29.92S
ACCOMACK*      PTCLDY    57  53  86 S6        29.91S
$$

NCZ012>017-030>032-281000-
NORTH CENTRAL AND EASTERN NORTH CAROLINA

CITY           SKY/WX    TMP DP  RH WIND       PRES   REMARKS
ROANOKE RAPIDS FAIR      61  54  77 SW10      29.93S
RALEIGH        CLOUDY    64  55  72 SW10      29.93F
ELIZABETH CITY CLEAR     58  55  90 S6        29.96S
AHOSKIE*         N/A     61  55  82 S3        29.94S
EDENTON*       PTCLDY    58  55  89 CALM      29.96F
CURRITUCK*     CLEAR     59  56  87 S5        29.96S
KILL DEVIL HLS NOT AVBL
MANTEO         CLEAR     58  56  91 SW7       29.98S
CAPE HATTERAS  PTCLDY    68  58  70 SW9       29.97F HAZE
TARBORO*       NOT AVBL
GOLDSBORO      CLOUDY    62  62 100 S3        29.94F
WASHINGTON     CLOUDY    60  56  85 S3        29.97S
GREENVILLE     CLOUDY    63  59  88 S6        29.97S
NEW BERN       CLOUDY    61  58  90 S3        29.98F
WILMINGTON     CLOUDY    63  59  87 SW3       29.98S
$$

VAZ048-281000-
ELSEWHERE

CITY           SKY/WX    TMP DP  RH WIND       PRES   REMARKS
HARRISBURG PA  CLOUDY    51  50  96 CALM      29.87S FOG
BALTIMORE      MOCLDY    53  53 100 CALM      29.85F
ANNAPOLIS      CLOUDY    53  51  93 SE7       29.85S
ANDREWS AFB    CLOUDY    65  56  75 SW8       29.84S
PHILADELPHIA   CLOUDY    51  50  96 NE9       29.90S FOG
HENDERSON NC   CLOUDY    60  53  77 SW7       29.92S
GREENSBORO     LGT RAIN  60  60 100 W8        29.92R
ROCKY MOUNT    PTCLDY    61  57  87 S9        29.94F
$$

VAZ100-281000-
MARINE

STATION/POSITION TIME  TEMP    WIND        PRES    WAVE   SWELL
                       AIR SEA DIR/SP/G            HT/PER HT/PER
                 (UTC) (F)     (DEG/KT/KT) (MB)    (FT/S) (FT/S)
CAPE MAY NJ      0848   54 45  150/  8/ 10 1011.5F
LEWES DE         0848   63 45  220/  7/ 11 1011.8F
OCEAN-CITY-INLET 0848   48 49  220/ 10/ 11 1013.1F
WACHAPREAGUE VA  0848   55 58  210/  5/  7 1012.7F
THOMAS POINT MD  0900   56 46  160/ 15/ 15   N/A
GOOSES REEF MD   0900   51 47  160/ 10/ 10 1011.6    1/ 2
COVE POINT MD    0848   51     180/ 10/ 11 1011.8F
SOLOMONS ISLAND  0848   59 48  190/  4/  7   N/A
BISHOPS HEAD MD  0848   58 53  180/ 12/ 13 1011.9F
PINEY POINT MD   0848          210/  7/  7   N/A
POTOMAC MD       0900   55 48  190/  6/  8 1010.6    1
CAMBRIDGE MD     0848   58 47  170/  5/  6 1010.7F
LEWISETTA VA     0848   64 53  220/  7/  9 1011.2F
RAPPAHANNOCK LGT 0848          170/ 12/ 13 1013.2F
STINGRAY PT      0850   55     200/  8/ 10 1012.6F
YORK RVR RNG VA  0848   59     210/ 14/ 15 1011.9F
YORKTOWN VA      0848   62 51  210/  9/ 14 1012.2F
JAMESTOWN VA     0900   63 56  200/ 10/ 14   N/A     0
DOMINION TERM VA 0848   58     200/  7/  8 1013.1F
KIPTOPEKE VA     0848      51  160/  6/  7   N/A
CHES BAY BRIDGE  0848   60 50  210/ 12/ 14 1013.1F
CAPE HENRY VA    0848   62     190/ 10/ 14   N/A
WILLOUBY STN VA  0848   62     200/ 14/ 16 1013.9F
S CRANEY ISL VA  0848   60     190/  7/  9 1013.1F
CAPE HENRY BUOY  0842      51                N/A     3/ 7   2/11
CAPE CHARLES BUO 0851      48                N/A     3/10   2/11
OFFSHORE WE BUOY 0851      51                N/A     4/10   2/11
64NM E OF VA BCH 0850   53 49  200/  8/  8 1014.5F   4/ 8   3/ 8
DUCK PIER NC     0848   61 49  190/  7/  8 1014.1F
44100 DUCK FRF   0835      51                N/A     4/10   2/11
44056 DUCK FRF   0830      50                N/A     3/ 9   2/11
OREGON INLET NC  0842   61 59  200/  8/  9 1014.9F
HATTERAS NC      0848   66 62  210/  7/ 11 1014.7F
DIAMOND SHLS NC  0850   71 74  230/ 16/ 19 1015.1F   5/ 9   3/ 9
CAPE LOOKOUT NC  0800   66     210/  8/  9 1015.1F
$$




USA.gov is the U.S. government's official web portal to all federal, state and local government web resources and services.